Weather History for Valdez Airport, AK

Change the Weather History Date:

Thursday, March 21, 2013

  Actual Average Record
Temperature  
Mean Temperature 18 °F -  
Max Temperature 23 °F 37 °F 46 °F (1965)
Min Temperature 12 °F 25 °F 8 °F (2004)
Degree Days  
Heating Degree Days 48    
Moisture  
Dew Point -2 °F    
Average Humidity 41    
Maximum Humidity 62    
Minimum Humidity 35    
Precipitation  
Precipitation 0.00 in - - ()
Sea Level Pressure  
Sea Level Pressure 30.11 in    
Wind  
Wind Speed 7 mph (East)    
Max Wind Speed 18 mph    
Max Gust Speed 24 mph    
Visibility 10 miles    
Events      
Averages and records for this station are not official NWS values.
T = Trace of Precipitation, MM = Missing Value Source: NWS Daily Summary

Daily Weather History Graph

Daily Weather History Graph

Search for Another Location

Airport:

Trip Planner

Search our weather history database for the weather conditions in past years. The results will help you decide how hot, cold, wet, or windy it might be!

Date:

Astronomy

Mar. 21, 2013 Rise Set
Actual Time 7:41 AM AKDT 8:03 PM AKDT
Civil Twilight 6:58 AM AKDT 8:47 PM AKDT
Nautical Twilight 6:06 AM AKDT 9:39 PM AKDT
Astronomical Twilight 5:08 AM AKDT 10:37 PM AKDT
Moon 1:22 PM AKDT (3/21) 5:32 AM AKDT (3/21)
Length of Visible Light 13h 48m
Length of Day
12h 22m
Waxing Gibbous, 70% of the Moon is Illuminated
Mar 21
Waxing Gibbous
Mar 27
Full
Apr 2
Last Quarter
Apr 10
New
Apr 18
First Quarter

Hourly Weather History & Observations

Time (AKDT) Temp. Windchill Dew Point Humidity Pressure Visibility Wind Dir Wind Speed Gust Speed Precip Events Conditions
12:16 AM 19.4 °F 14.3 °F -2.2 °F 39% 29.88 in 10.0 mi NE 3.5 mph - N/A   Clear
12:36 AM 17.6 °F 10.7 °F -2.2 °F 42% 29.89 in 10.0 mi NNE 4.6 mph - N/A   Clear
12:56 AM 17.6 °F 10.7 °F -4.0 °F 38% 29.89 in 10.0 mi SE 4.6 mph - N/A   Clear
1:16 AM 19.4 °F 7.9 °F -2.2 °F 39% 29.90 in 10.0 mi SSE 10.4 mph 16.1 mph N/A   Clear
1:36 AM 17.6 °F - -4.0 °F 38% 29.91 in 10.0 mi Calm Calm - N/A   Clear
1:56 AM 15.8 °F 7.2 °F -5.8 °F 38% 29.92 in 10.0 mi ENE 5.8 mph - N/A   Clear
2:16 AM 17.6 °F 9.3 °F -2.2 °F 42% 29.93 in 10.0 mi NNE 5.8 mph - N/A   Clear
2:36 AM 17.6 °F 12.3 °F -2.2 °F 42% 29.94 in 10.0 mi ENE 3.5 mph - N/A   Clear
2:56 AM 17.6 °F 2.7 °F -4.0 °F 38% 29.94 in 10.0 mi ESE 16.1 mph 20.7 mph N/A   Clear
3:16 AM 17.6 °F 2.2 °F -4.0 °F 38% 29.95 in 10.0 mi ESE 17.3 mph 20.7 mph N/A   Clear
3:36 AM 17.6 °F 6.4 °F -4.0 °F 38% 29.97 in 10.0 mi East 9.2 mph 17.3 mph N/A   Clear
3:56 AM 17.6 °F 1.7 °F -4.0 °F 38% 29.97 in 10.0 mi ESE 18.4 mph - N/A   Clear
4:16 AM 19.4 °F 5.5 °F -4.0 °F 36% 29.97 in 10.0 mi ESE 15.0 mph 20.7 mph N/A   Clear
4:36 AM 17.6 °F 2.2 °F -4.0 °F 38% 29.97 in 10.0 mi ESE 17.3 mph 24.2 mph N/A   Clear
4:56 AM 17.6 °F 2.2 °F -5.8 °F 35% 29.98 in 10.0 mi ESE 17.3 mph 20.7 mph N/A   Clear
5:16 AM 17.6 °F 8.2 °F -4.0 °F 38% 29.99 in 10.0 mi ENE 6.9 mph - N/A   Clear
5:36 AM 17.6 °F 7.3 °F -5.8 °F 35% 29.99 in 10.0 mi East 8.1 mph - N/A   Clear
5:56 AM 17.6 °F 8.2 °F -5.8 °F 35% 30.00 in 10.0 mi NE 6.9 mph - N/A   Clear
6:16 AM 17.6 °F 8.2 °F -5.8 °F 35% 30.01 in 10.0 mi NE 6.9 mph - N/A   Clear
6:36 AM 15.8 °F 7.2 °F -5.8 °F 38% 30.02 in 10.0 mi NNE 5.8 mph - N/A   Clear
6:56 AM 17.6 °F 9.3 °F -5.8 °F 35% 30.02 in 10.0 mi ENE 5.8 mph - N/A   Clear
7:16 AM 17.6 °F 9.3 °F -5.8 °F 35% 30.03 in 10.0 mi NE 5.8 mph - N/A   Clear
7:36 AM 17.6 °F 6.4 °F -5.8 °F 35% 30.03 in 10.0 mi East 9.2 mph - N/A   Clear
7:56 AM 17.6 °F 7.3 °F -5.8 °F 35% 30.04 in 10.0 mi NE 8.1 mph - N/A   Clear
8:16 AM 15.8 °F 4.2 °F -4.0 °F 41% 30.05 in 10.0 mi NE 9.2 mph 17.3 mph N/A   Clear
8:36 AM 17.6 °F 9.3 °F -4.0 °F 38% 30.05 in 10.0 mi North 5.8 mph - N/A   Clear
8:56 AM 17.6 °F 6.4 °F -4.0 °F 38% 30.06 in 10.0 mi East 9.2 mph - N/A   Clear
9:16 AM 17.6 °F 6.4 °F -2.2 °F 42% 30.07 in 10.0 mi NE 9.2 mph - N/A   Clear
9:36 AM 17.6 °F 12.3 °F -2.2 °F 42% 30.08 in 10.0 mi North 3.5 mph - N/A   Clear
9:56 AM 17.6 °F 6.4 °F -2.2 °F 42% 30.08 in 10.0 mi NE 9.2 mph 16.1 mph N/A   Clear
10:16 AM 19.4 °F 11.5 °F -2.2 °F 39% 30.09 in 10.0 mi North 5.8 mph - N/A   Clear
10:36 AM 19.4 °F 7.9 °F -2.2 °F 39% 30.10 in 10.0 mi NE 10.4 mph 18.4 mph N/A   Clear
10:56 AM 19.4 °F 8.6 °F -2.2 °F 39% 30.11 in 10.0 mi North 9.2 mph - N/A   Clear
11:16 AM 19.4 °F 7.9 °F -2.2 °F 39% 30.13 in 10.0 mi North 10.4 mph - N/A   Clear
11:36 AM 21.2 °F 11.7 °F -2.2 °F 36% 30.14 in 10.0 mi ESE 8.1 mph - N/A   Clear
11:56 AM 21.2 °F 11.7 °F -2.2 °F 36% 30.14 in 10.0 mi North 8.1 mph - N/A   Clear
12:16 PM 21.2 °F 10.9 °F -2.2 °F 36% 30.15 in 10.0 mi North 9.2 mph - N/A   Clear
12:36 PM 21.2 °F 14.9 °F -2.2 °F 36% 30.15 in 10.0 mi East 4.6 mph - N/A   Clear
12:56 PM 21.2 °F 13.6 °F -0.4 °F 39% 30.16 in 10.0 mi East 5.8 mph - N/A   Clear
1:16 PM 21.2 °F 12.6 °F -0.4 °F 39% 30.16 in 10.0 mi ESE 6.9 mph - N/A   Clear
1:36 PM 23.0 °F 14.7 °F -0.4 °F 36% 30.18 in 10.0 mi ESE 6.9 mph - N/A   Clear
1:56 PM 23.0 °F 13.9 °F 1.4 °F 39% 30.17 in 10.0 mi ESE 8.1 mph - N/A   Partly Cloudy
2:16 PM 23.0 °F 11.1 °F 1.4 °F 39% 30.18 in 10.0 mi ESE 12.7 mph - N/A   Partly Cloudy
2:36 PM 23.0 °F 14.7 °F -0.4 °F 36% 30.18 in 10.0 mi ESE 6.9 mph 16.1 mph N/A   Partly Cloudy
2:56 PM 23.0 °F 13.9 °F 1.4 °F 39% 30.19 in 10.0 mi ESE 8.1 mph - N/A   Partly Cloudy
3:16 PM 23.0 °F 13.9 °F 1.4 °F 39% 30.19 in 10.0 mi ESE 8.1 mph 18.4 mph N/A   Partly Cloudy
3:36 PM 23.0 °F 13.1 °F 1.4 °F 39% 30.20 in 10.0 mi ESE 9.2 mph - N/A   Partly Cloudy
3:56 PM 23.0 °F 11.7 °F 1.4 °F 39% 30.20 in 10.0 mi SE 11.5 mph 16.1 mph N/A   Clear
4:16 PM 23.0 °F 10.6 °F 1.4 °F 39% 30.21 in 10.0 mi ESE 13.8 mph 18.4 mph N/A   Clear
4:36 PM 23.0 °F 11.7 °F 1.4 °F 39% 30.21 in 10.0 mi ESE 11.5 mph 23.0 mph N/A   Clear
4:56 PM 21.2 °F 8.3 °F 1.4 °F 42% 30.21 in 10.0 mi ESE 13.8 mph 19.6 mph N/A   Clear
5:16 PM 21.2 °F 10.9 °F 1.4 °F 42% 30.22 in 10.0 mi SE 9.2 mph - N/A   Clear
5:36 PM 21.2 °F 12.6 °F 1.4 °F 42% 30.22 in 10.0 mi SE 6.9 mph - N/A   Clear
5:56 PM 21.2 °F 13.6 °F 1.4 °F 42% 30.23 in 10.0 mi East 5.8 mph - N/A   Partly Cloudy
6:16 PM 21.2 °F 13.6 °F 1.4 °F 42% 30.23 in 10.0 mi ESE 5.8 mph - N/A   Partly Cloudy
6:36 PM 19.4 °F 12.8 °F -0.4 °F 42% 30.23 in 10.0 mi ESE 4.6 mph - N/A   Partly Cloudy
6:56 PM 19.4 °F 12.8 °F 1.4 °F 46% 30.24 in 10.0 mi ENE 4.6 mph - N/A   Partly Cloudy
7:16 PM 19.4 °F 11.5 °F -0.4 °F 42% 30.24 in 10.0 mi SE 5.8 mph - N/A   Partly Cloudy
7:36 PM 19.4 °F 12.8 °F -0.4 °F 42% 30.25 in 10.0 mi ESE 4.6 mph - N/A   Partly Cloudy
7:56 PM 17.6 °F 12.3 °F -0.4 °F 45% 30.26 in 10.0 mi East 3.5 mph - N/A   Scattered Clouds
8:16 PM 17.6 °F 12.3 °F -0.4 °F 45% 30.26 in 10.0 mi East 3.5 mph - N/A   Scattered Clouds
8:36 PM 17.6 °F 10.7 °F -2.2 °F 42% 30.27 in 10.0 mi East 4.6 mph - N/A   Scattered Clouds
9:16 PM 15.8 °F - 1.4 °F 53% 30.28 in 10.0 mi Calm Calm - N/A   Scattered Clouds
9:36 PM 14.0 °F 8.2 °F 1.4 °F 57% 30.27 in 10.0 mi NNE 3.5 mph - N/A   Scattered Clouds
9:56 PM 14.0 °F 6.5 °F 1.4 °F 57% 30.27 in 10.0 mi SE 4.6 mph - N/A   Mostly Cloudy
10:16 PM 12.2 °F 6.1 °F 1.4 °F 62% 30.28 in 10.0 mi NE 3.5 mph - N/A   Partly Cloudy
10:36 PM 12.2 °F - 1.4 °F 62% 30.28 in 10.0 mi Calm Calm - N/A   Partly Cloudy
10:56 PM 14.0 °F 8.2 °F 3.2 °F 62% 30.28 in 10.0 mi NE 3.5 mph - N/A   Scattered Clouds
11:16 PM 14.0 °F 8.2 °F 1.4 °F 57% 30.28 in 10.0 mi SE 3.5 mph - N/A   Overcast
11:36 PM 15.8 °F 8.6 °F 1.4 °F 53% 30.29 in 10.0 mi NNE 4.6 mph - N/A   Overcast
11:56 PM 15.8 °F - 1.4 °F 53% 30.30 in 10.0 mi Calm Calm - N/A   Overcast